EW7658 Weather Reports


time (UTC)temp
C
wind
direction
speed
KPH
gust
KPH
rain 1hr
cm
rain 24hr
cm
rain mn
cm
humidity
%
barometer
mb
20260504235025 27 302 1.6 22.5 0.00 0.00 0.00 49 1002.3
20260504234535 27 0 0.0 32.2 0.00 0.00 0.00 48 1002.3
20260504234026 27 0 3.2 32.2 0.00 0.00 0.00 48 1002.3
20260504233526 27 267 6.4 32.2 0.00 0.00 0.00 48 1002.3
20260504233050 27 314 1.6 12.9 0.00 0.00 0.00 49 1002.3
20260504232525 27 0 0.0 11.3 0.00 0.00 0.00 49 1002.3
20260504232025 27 0 0.0 29.0 0.00 0.00 0.00 50 1002.5
20260504231539 27 248 8.0 33.8 0.00 0.00 0.00 49 1002.3
20260504231023 27 295 6.4 33.8 0.00 0.00 0.00 49 1002.5
20260504230527 27 260 4.8 30.6 0.00 0.00 0.00 48 1002.5
20260504230055 27 0 1.6 27.4 0.00 0.00 0.00 49 1002.4
20260504225524 28 305 1.6 27.4 0.00 0.00 0.00 49 1002.4
20260504225024 27 263 0.0 8.0 0.00 0.00 0.00 50 1002.5
20260504224555 27 0 0.0 8.0 0.00 0.00 0.00 50 1002.5
20260504224024 27 0 0.0 16.1 0.00 0.00 0.00 50 1002.5
20260504223523 27 0 1.6 40.2 0.00 0.00 0.00 50 1002.6
20260504223037 27 0 0.0 40.2 0.00 0.00 0.00 49 1002.6
20260504222525 27 210 1.6 22.5 0.00 0.00 0.00 49 1002.7
20260504222026 27 259 1.6 25.7 0.00 0.00 0.00 49 1002.6
20260504221534 27 0 1.6 25.7 0.00 0.00 0.00 50 1002.7
20260504221026 27 279 1.6 25.7 0.00 0.00 0.00 49 1002.7
20260504220524 27 0 0.0 19.3 0.00 0.00 0.00 50 1002.6
20260504220033 27 0 1.6 20.9 0.00 0.00 0.00 50 1002.7
20260504215527 27 0 0.0 20.9 0.00 0.00 0.00 51 1002.7
20260504215024 27 307 0.0 33.8 0.00 0.00 0.00 50 1002.6
20260504214544 27 0 4.8 33.8 0.00 0.00 0.00 50 1002.7
20260504214023 28 271 0.0 30.6 0.00 0.00 0.00 50 1002.7
20260504213523 27 309 8.0 27.4 0.00 0.00 0.00 48 1002.7
20260504213039 28 258 4.8 25.7 0.00 0.00 0.00 49 1002.9
20260504212524 28 0 0.0 25.7 0.00 0.00 0.00 50 1002.8
20260504212023 27 0 6.4 25.7 0.00 0.00 0.00 50 1002.8
20260504211537 27 314 1.6 27.4 0.00 0.00 0.00 52 1002.7
20260504211024 27 274 1.6 27.4 0.00 0.00 0.00 51 1002.8
20260504210523 27 0 0.0 27.4 0.00 0.00 0.00 51 1002.9
20260504210050 27 259 0.0 16.1 0.00 0.00 0.00 51 1002.7
20260504205524 27 0 1.6 30.6 0.00 0.00 0.00 51 1002.8
20260504205026 27 0 8.0 30.6 0.00 0.00 0.00 52 1003.0
20260504204547 27 0 1.6 30.6 0.00 0.00 0.00 51 1003.0
20260504204024 27 270 0.0 35.4 0.00 0.00 0.00 52 1003.0
20260504203525 27 257 8.0 35.4 0.00 0.00 0.00 53 1003.0
20260504203044 26 280 1.6 22.5 0.00 0.00 0.00 54 1003.2
20260504202525 26 0 1.6 24.1 0.00 0.00 0.00 55 1003.1
20260504202023 26 0 1.6 24.1 0.00 0.00 0.00 55 1003.3
20260504201544 27 300 1.6 24.1 0.00 0.00 0.00 54 1003.5
20260504201024 26 0 1.6 30.6 0.00 0.00 0.00 56 1003.6
20260504200525 26 0 0.0 30.6 0.00 0.00 0.00 56 1003.5
20260504200050 26 311 6.4 27.4 0.00 0.00 0.00 54 1003.6
20260504195524 26 279 8.0 27.4 0.00 0.00 0.00 53 1003.9
20260504195024 26 299 3.2 22.5 0.00 0.00 0.00 55 1004.2
20260504194544 26 0 3.2 22.5 0.00 0.00 0.00 56 1004.3
20260504194024 26 0 0.0 14.5 0.00 0.00 0.00 59 1004.3
20260504193524 26 255 0.0 6.4 0.00 0.00 0.00 58 1004.4
20260504193044 25 0 0.0 8.0 0.00 0.00 0.00 60 1004.3
20260504192523 25 0 0.0 11.3 0.00 0.00 0.00 60 1004.3
20260504192025 24 0 0.0 11.3 0.00 0.00 0.00 62 1004.4
20260504191539 24 0 0.0 3.2 0.00 0.00 0.00 64 1004.5
20260504191027 23 0 0.0 16.1 0.00 0.00 0.00 64 1004.6
20260504190526 23 0 0.0 16.1 0.00 0.00 0.00 65 1004.7
20260504190040 23 0 0.0 4.8 0.00 0.00 0.00 64 1004.7
20260504185523 22 0 0.0 4.8 0.00 0.00 0.00 66 1004.9
20260504185023 21 0 0.0 9.7 0.00 0.00 0.00 68 1004.8
20260504184540 21 0 0.0 25.7 0.00 0.00 0.00 68 1004.6
20260504184023 20 302 1.6 25.7 0.00 0.00 0.00 69 1004.3
20260504183523 20 279 1.6 25.7 0.00 0.00 0.00 70 1003.8
20260504183038 20 233 3.2 25.7 0.00 0.00 0.00 71 1003.0
20260504182524 20 194 1.6 16.1 0.00 0.00 0.00 70 1003.7
20260504182023 20 0 0.0 12.9 0.00 0.00 0.00 69 1004.2
20260504181533 20 0 0.0 4.8 0.00 0.00 0.00 68 1004.5
20260504181026 20 0 0.0 8.0 0.00 0.00 0.00 67 1004.5
20260504180524 20 0 0.0 8.0 0.00 0.00 0.00 67 1004.8
20260504180041 20 0 0.0 30.6 0.00 0.00 0.00 65 1005.5
20260504175524 20 0 0.0 30.6 0.00 0.00 0.00 64 1005.6
20260504175025 21 0 0.0 16.1 0.00 0.00 0.00 63 1005.2
20260504174540 21 0 0.0 16.1 0.00 0.00 0.00 62 1005.2
20260504174024 21 0 0.0 16.1 0.00 0.00 0.00 62 1005.4
20260504173526 21 0 0.0 12.9 0.00 0.00 0.00 61 1005.5
20260504173039 21 0 0.0 12.9 0.00 0.00 0.00 62 1005.5
20260504172524 21 0 0.0 12.9 0.00 0.00 0.00 61 1005.6
20260504172024 22 160 0.0 12.9 0.00 0.00 0.00 60 1005.6
20260504171538 22 215 0.0 9.7 0.00 0.00 0.00 60 1005.9
20260504171024 22 0 0.0 8.0 0.00 0.00 0.00 59 1006.1
20260504170524 22 292 0.0 12.9 0.00 0.00 0.00 62 1006.1
20260504151024 17 0 0.0 4.8 0.00 0.00 0.00 73 1006.6
20260504150524 17 0 0.0 1.6 0.00 0.00 0.00 74 1006.7
20260504141028 18 0 0.0 1.6 0.00 0.00 0.00 69 1007.7
20260504140524 18 0 0.0 1.6 0.00 0.00 0.00 68 1007.6
20260504130524 18 0 0.0 6.4 0.00 0.00 0.00 70 1008.0
20260504110523 13 0 0.0 1.6 0.00 0.00 0.00 82 1008.2
20260504100527 15 0 0.0 0.0 0.00 0.00 0.00 75 1008.6
20260504081539 14 0 0.0 0.0 0.00 0.00 0.00 80 1008.7
20260504081024 14 0 0.0 0.0 0.00 0.00 0.00 79 1008.7
20260504080526 14 0 0.0 0.0 0.00 0.00 0.00 80 1008.7
20260504050524 17 0 0.0 0.0 0.00 0.00 0.00 71 1008.8
20260504045523 17 0 0.0 0.0 0.00 0.00 0.00 71 1008.8
20260504045032 17 0 0.0 0.0 0.00 0.00 0.00 71 1008.8
20260504044536 17 0 0.0 0.0 0.00 0.00 0.00 69 1008.9
20260504044025 17 0 0.0 0.0 0.00 0.00 0.00 69 1008.9
20260504043523 18 0 0.0 0.0 0.00 0.00 0.00 67 1008.9
20260504043053 18 0 0.0 0.0 0.00 0.00 0.00 66 1008.8
20260504042521 18 0 0.0 0.0 0.00 0.00 0.00 65 1009.1
20260504042024 18 0 0.0 0.0 0.00 0.00 0.00 65 1009.0
20260504041538 18 0 0.0 0.0 0.00 0.00 0.00 64 1009.1
20260504041024 19 0 0.0 0.0 0.00 0.00 0.00 64 1009.3
20260504040524 19 0 0.0 0.0 0.00 0.00 0.00 62 1009.4
20260504040041 20 0 0.0 0.0 0.00 0.00 0.00 62 1009.6
20260504035524 19 0 0.0 0.0 0.00 0.00 0.00 61 1009.5
20260504035024 19 0 0.0 0.0 0.00 0.00 0.00 64 1009.7
20260504034612 20 0 0.0 0.0 0.00 0.00 0.00 63 1009.9
20260504034026 20 0 0.0 0.0 0.00 0.00 0.00 61 1009.9
20260504033523 20 0 0.0 0.0 0.00 0.00 0.00 61 1009.6
20260504033038 20 0 0.0 8.0 0.00 0.00 0.00 61 1009.5
20260504032524 20 0 0.0 8.0 0.00 0.00 0.00 61 1009.2
20260504032025 20 0 0.0 0.0 0.00 0.00 0.00 61 1009.4
20260504031548 20 0 0.0 0.0 0.00 0.00 0.00 62 1009.5
20260504031025 20 0 0.0 0.0 0.00 0.00 0.00 62 1009.5
20260504030524 20 0 0.0 0.0 0.00 0.00 0.00 63 1009.3
20260504030055 20 0 0.0 0.0 0.00 0.00 0.00 63 1009.6
20260504025524 20 0 0.0 0.0 0.00 0.00 0.00 63 1009.6
20260504025024 20 0 0.0 0.0 0.00 0.00 0.00 64 1009.4
20260504024539 20 0 0.0 0.0 0.00 0.00 0.00 64 1009.4
20260504024024 19 0 0.0 0.0 0.00 0.00 0.00 65 1009.3
20260504023524 19 0 0.0 0.0 0.00 0.00 0.00 66 1009.4
20260504023036 20 0 0.0 0.0 0.00 0.00 0.00 65 1009.3
20260504022524 20 0 0.0 0.0 0.00 0.00 0.00 65 1009.3
20260504022024 20 0 0.0 0.0 0.00 0.00 0.00 64 1009.3
20260504021545 20 0 0.0 0.0 0.00 0.00 0.00 64 1009.3
20260504021024 20 0 0.0 0.0 0.00 0.00 0.00 64 1009.3
20260504020523 20 0 0.0 0.0 0.00 0.00 0.00 63 1009.4
20260504020039 20 0 0.0 0.0 0.00 0.00 0.00 65 1009.2
20260504015524 20 0 0.0 0.0 0.00 0.00 0.00 63 1009.2
20260504015026 20 0 0.0 0.0 0.00 0.00 0.00 64 1009.2
20260504014538 20 0 0.0 0.0 0.00 0.00 0.00 63 1009.2
20260504014023 20 0 0.0 0.0 0.00 0.00 0.00 61 1009.2
20260504013523 21 0 0.0 0.0 0.00 0.00 0.00 60 1009.2
20260504013038 21 0 0.0 0.0 0.00 0.00 0.00 59 1009.2
20260504012523 21 0 0.0 0.0 0.00 0.00 0.00 58 1009.2
20260504012024 21 0 0.0 0.0 0.00 0.00 0.00 58 1009.2
20260504011536 22 0 0.0 0.0 0.00 0.00 0.00 57 1009.3
20260504011028 22 0 0.0 0.0 0.00 0.00 0.00 56 1009.3
20260504010523 22 0 0.0 0.0 0.00 0.00 0.00 54 1009.2
20260504010052 22 0 0.0 0.0 0.00 0.00 0.00 54 1009.2
20260504005524 23 0 0.0 0.0 0.00 0.00 0.00 53 1009.1
20260504005026 23 0 0.0 0.0 0.00 0.00 0.00 52 1009.0
20260504004544 23 0 0.0 0.0 0.00 0.00 0.00 51 1009.0
20260504004025 23 0 0.0 0.0 0.00 0.00 0.00 50 1009.0
20260504003523 23 0 0.0 0.0 0.00 0.00 0.00 50 1009.1
20260504003038 24 0 0.0 0.0 0.00 0.00 0.00 49 1009.0
20260504002523 24 0 0.0 0.0 0.00 0.00 0.00 48 1008.9
20260504002023 24 0 0.0 0.0 0.00 0.00 0.00 48 1009.0
20260504001540 24 0 0.0 0.0 0.00 0.00 0.00 48 1008.9
20260504001025 24 0 0.0 0.0 0.00 0.00 0.00 47 1008.9
20260504000525 25 0 0.0 0.0 0.00 0.00 0.00 47 1008.9
20260504000034 25 0 0.0 0.0 0.00 0.00 0.00 47 1008.9
20260503235524 25 0 0.0 0.0 0.00 0.00 0.00 46 1009.0